Weather History for KMAF - September, 2012

Change the Weather History Date:

Thursday, September 20, 2012

  Actual Average Record
Temperature  
Mean Temperature 78 °F 73 °F  
Max Temperature 94 °F 86 °F 107 °F (1953)
Min Temperature 61 °F 61 °F 42 °F (1971)
Degree Days  
Heating Degree Days 0 0  
Month to date heating degree days 11 0  
Since 1 July heating degree days 11 0  
Cooling Degree Days 13 9  
Month to date cooling degree days 244 224  
Year to date cooling degree days 2691 2108  
Growing Degree Days 27 (Base 50)    
Moisture  
Dew Point 49 °F    
Average Humidity 46    
Maximum Humidity 78    
Minimum Humidity 14    
Precipitation  
Precipitation 0.00 in 0.05 in 0.38 in (1965)
Month to date precipitation 0.45 1.28  
Year to date precipitation 7.16 11.00  
Sea Level Pressure  
Sea Level Pressure 29.92 in    
Wind  
Wind Speed 11 mph (South)    
Max Wind Speed 21 mph    
Max Gust Speed 25 mph    
Visibility 10 miles    
Events      
T = Trace of Precipitation, MM = Missing Value Source: NWS Daily Summary

Daily Weather History Graph

Daily Weather History Graph

Search for Another Location

Airport or City:

Trip Planner

Search our weather history database for the weather conditions in past years. The results will help you decide how hot, cold, wet, or windy it might be!

Date:

Astronomy

Sep. 20, 2012 Rise Set
Actual Time 7:36 AM CDT 7:47 PM CDT
Civil Twilight 7:11 AM CDT 8:11 PM CDT
Nautical Twilight 6:43 AM CDT 8:40 PM CDT
Astronomical Twilight 6:14 AM CDT 9:08 PM CDT
Moon 12:35 PM CDT (9/20) 11:12 PM CDT (9/20)
Length of Visible Light 13h 00m
Length of Day
12h 11m
Waxing Crescent, 27% of the Moon is Illuminated
Sep 20
Waxing Crescent
Sep 22
First Quarter
Sep 29
Full
Oct 8
Last Quarter
Oct 15
New

Hourly Weather History & Observations

Time (CDT) Temp. Heat Index Dew Point Humidity Pressure Visibility Wind Dir Wind Speed Gust Speed Precip Events Conditions
12:53 AM 73.0 °F - 50.0 °F 44% 29.94 in 10.0 mi South 13.8 mph - N/A   Clear
1:53 AM 71.1 °F - 51.1 °F 49% 29.94 in 10.0 mi SSW 12.7 mph - N/A   Clear
2:53 AM 69.1 °F - 52.0 °F 54% 29.94 in 10.0 mi SSW 9.2 mph - N/A   Clear
3:53 AM 68.0 °F - 52.0 °F 56% 29.93 in 10.0 mi SSW 11.5 mph - N/A   Clear
4:53 AM 68.0 °F - 53.6 °F 60% 30.06 in 10.0 mi SSW 10.4 mph - N/A   Clear
5:53 AM 66.0 °F - 55.0 °F 68% 29.93 in 10.0 mi South 9.2 mph - N/A   Clear
6:53 AM 64.9 °F - 55.0 °F 70% 29.95 in 10.0 mi South 6.9 mph - N/A   Clear
7:53 AM 61.0 °F - 54.0 °F 78% 29.97 in 10.0 mi SSE 9.2 mph - N/A   Clear
8:53 AM 69.1 °F - 57.0 °F 65% 29.97 in 10.0 mi South 16.1 mph - N/A   Clear
9:53 AM 72.0 °F - 57.0 °F 59% 29.98 in 10.0 mi South 17.3 mph - N/A   Clear
10:53 AM 77.0 °F - 55.9 °F 48% 29.98 in 10.0 mi South 16.1 mph - N/A   Clear
11:53 AM 82.9 °F 81.9 °F 54.0 °F 37% 29.97 in 10.0 mi South 13.8 mph - N/A   Clear
12:53 PM 87.1 °F - 51.1 °F 29% 29.94 in 10.0 mi SSW 8.1 mph 18.4 mph N/A   Clear
1:53 PM 90.0 °F - 48.9 °F 24% 29.92 in 10.0 mi SSE 11.5 mph - N/A   Clear
2:53 PM 91.9 °F - 44.1 °F 19% 29.89 in 10.0 mi South 9.2 mph 18.4 mph N/A   Clear
3:53 PM 93.0 °F - 41.0 °F 16% 29.86 in 10.0 mi SSW 9.2 mph - N/A   Clear
4:53 PM 93.0 °F - 39.0 °F 15% 29.85 in 10.0 mi West 8.1 mph - N/A   Clear
5:53 PM 91.9 °F - 36.0 °F 14% 29.84 in 10.0 mi Variable 4.6 mph - N/A   Clear
6:53 PM 91.9 °F - 37.9 °F 15% 29.84 in 10.0 mi South 12.7 mph - N/A   Clear
7:53 PM 86.0 °F - 44.1 °F 23% 29.86 in 10.0 mi SSE 12.7 mph - N/A   Clear
8:53 PM 82.9 °F - 46.0 °F 27% 29.86 in 10.0 mi SSE 12.7 mph - N/A   Clear
9:53 PM 80.1 °F - 46.0 °F 30% 29.89 in 10.0 mi South 13.8 mph - N/A   Clear
10:53 PM 78.1 °F - 46.9 °F 33% 29.89 in 10.0 mi South 12.7 mph 21.9 mph N/A   Clear
11:53 PM 75.9 °F - 46.9 °F 36% 29.88 in 10.0 mi South 11.5 mph - N/A   Clear